Knox, IN

11:41 AM CST on December 09, 2016 (GMT -0600)
Starke County

Weather History for KOXI - October, 2014

Change the Weather History Date:

Saturday, October 11, 2014

  Actual Average (KSBN) Record (KSBN)
Temperature  
Mean Temperature 45 °F -  
Max Temperature 81 °F 62 °F 87 °F (1928)
Min Temperature 31 °F 43 °F 12 °F (1906)
Degree Days  
Heating Degree Days 20    
Moisture  
Dew Point 34 °F    
Average Humidity 72    
Maximum Humidity 97    
Minimum Humidity 34    
Precipitation  
Precipitation 0.00 in - - ()
Sea Level Pressure  
Sea Level Pressure 30.19 in    
Wind  
Wind Speed 3 mph (NE)    
Max Wind Speed 10 mph    
Max Gust Speed -    
Visibility 9 miles    
Events      
Averages and records for this station are not official NWS values.
T = Trace of Precipitation, MM = Missing Value Source: NWS Daily Summary

Daily Weather History Graph

Daily Weather History Graph

Search for Another Location

Airport or City:

Trip Planner

Search our weather history database for the weather conditions in past years. The results will help you decide how hot, cold, wet, or windy it might be!

Date:

Astronomy

Oct. 11, 2014 Rise Set
Actual Time 6:54 AM CDT 6:12 PM CDT
Civil Twilight 6:26 AM CDT 6:39 PM CDT
Nautical Twilight 5:54 AM CDT 7:11 PM CDT
Astronomical Twilight 5:22 AM CDT 7:43 PM CDT
Moon 8:37 PM CDT (10/11) 10:19 AM CDT (10/11)
Length of Visible Light 12h 13m
Length of Day
11h 17m
Waning Gibbous, 87% of the Moon is Illuminated
Oct 11
Waning Gibbous
Oct 15
Last Quarter
Oct 23
New
Oct 30
First Quarter
Nov 6
Full

Hourly Weather History & Observations

Time (CDT) Temp. Windchill Dew Point Humidity Pressure Visibility Wind Dir Wind Speed Gust Speed Precip Events Conditions
12:15 AM 39.2 °F 37.0 °F 36.1 °F 89% 30.15 in 10.0 mi NNE 3.5 mph - N/A   Clear
12:35 AM 38.1 °F - 35.6 °F 91% 30.15 in 10.0 mi Calm Calm - N/A   Clear
12:55 AM 37.8 °F 34.2 °F 35.2 °F 91% 30.14 in 10.0 mi NE 4.6 mph - N/A   Clear
1:15 AM 38.1 °F 34.6 °F 35.4 °F 90% 30.14 in 10.0 mi NE 4.6 mph - N/A   Clear
1:35 AM 38.1 °F 34.6 °F 35.1 °F 89% 30.14 in 10.0 mi NNE 4.6 mph - N/A   Clear
1:55 AM 37.6 °F 34.0 °F 34.7 °F 89% 30.15 in 10.0 mi NNE 4.6 mph - N/A   Clear
2:15 AM 37.6 °F 35.1 °F 34.9 °F 90% 30.15 in 10.0 mi NNE 3.5 mph - N/A   Clear
2:35 AM 37.0 °F 34.5 °F 34.5 °F 91% 30.15 in 10.0 mi North 3.5 mph - N/A   Clear
2:55 AM 36.3 °F - 34.2 °F 92% 30.15 in 10.0 mi Calm Calm - N/A   Clear
3:15 AM 35.4 °F - 33.4 °F 92% 30.15 in 10.0 mi Calm Calm - N/A   Clear
3:35 AM 34.7 °F - 33.1 °F 94% 30.16 in 10.0 mi Calm Calm - N/A   Clear
3:55 AM 34.3 °F 30.2 °F 32.7 °F 94% 30.16 in 10.0 mi NNE 4.6 mph - N/A   Clear
4:15 AM 34.7 °F - 33.1 °F 94% 30.16 in 10.0 mi Calm Calm - N/A   Clear
4:35 AM 33.4 °F - 32.0 °F 94% 30.15 in 5.0 mi Calm Calm - N/A   Clear
4:55 AM 33.1 °F - 32.0 °F 96% 30.16 in 7.0 mi Calm Calm - N/A   Clear
5:15 AM 32.5 °F - 31.6 °F 96% 30.16 in 2.5 mi Calm Calm - N/A   Clear
5:35 AM 31.8 °F - 30.7 °F 96% 30.17 in 1.2 mi Calm Calm - N/A   Unknown
5:55 AM 32.9 °F - 32.0 °F 96% 30.18 in 4.0 mi Calm Calm - N/A   Clear
6:15 AM 33.4 °F - 32.2 °F 95% 30.20 in 4.0 mi Calm Calm - N/A   Clear
6:35 AM 33.4 °F - 32.2 °F 95% 30.21 in 4.0 mi Calm Calm - N/A   Clear
6:55 AM 33.1 °F - 32.0 °F 96% 30.21 in 4.0 mi Calm Calm - N/A   Clear
7:15 AM 32.7 °F - 32.0 °F 97% 30.23 in 0.8 mi Calm Calm - N/A   Unknown
7:35 AM 33.6 °F - 32.5 °F 96% 30.23 in 3.0 mi Calm Calm - N/A   Clear
7:55 AM 34.3 °F - 33.1 °F 95% 30.23 in 7.0 mi Calm Calm - N/A   Clear
8:15 AM 35.8 °F - 34.5 °F 95% 30.23 in 7.0 mi Calm Calm - N/A   Clear
8:35 AM 38.5 °F - 37.0 °F 95% 30.23 in 10.0 mi Calm Calm - N/A   Clear
8:55 AM 41.0 °F - 38.3 °F 90% 30.23 in 10.0 mi Calm Calm - N/A   Clear
9:15 AM 43.2 °F 41.5 °F 38.3 °F 83% 30.23 in 10.0 mi ENE 3.5 mph - N/A   Clear
9:35 AM 45.3 °F - 38.7 °F 78% 30.23 in 10.0 mi Calm Calm - N/A   Clear
9:55 AM 47.3 °F - 38.8 °F 72% 30.24 in 10.0 mi Calm Calm - N/A   Clear
10:15 AM 50.0 °F - 37.9 °F 63% 30.24 in 10.0 mi Calm Calm - N/A   Clear
10:35 AM 52.3 °F - 37.2 °F 56% 30.24 in 10.0 mi East 4.6 mph - N/A   Clear
10:55 AM 54.0 °F - 35.6 °F 50% 30.24 in 10.0 mi NE 5.8 mph - N/A   Clear
11:15 AM 55.0 °F - 34.5 °F 46% 30.24 in 10.0 mi ENE 8.1 mph - N/A   Clear
11:35 AM 55.4 °F - 32.9 °F 43% 30.24 in 10.0 mi NE 10.4 mph - N/A   Clear
11:55 AM 56.1 °F - 32.5 °F 41% 30.24 in 10.0 mi East 8.1 mph - N/A   Clear
12:15 PM 56.8 °F - 32.5 °F 40% 30.24 in 10.0 mi East 9.2 mph - N/A   Clear
12:35 PM 56.8 °F - 31.8 °F 39% 30.23 in 10.0 mi East 8.1 mph - N/A   Clear
12:55 PM 57.0 °F - 32.2 °F 39% 30.23 in 10.0 mi ENE 8.1 mph - N/A   Clear
1:15 PM 57.4 °F - 32.4 °F 39% 30.22 in 10.0 mi East 5.8 mph - N/A   Clear
1:35 PM 57.9 °F - 32.0 °F 37% 30.21 in 10.0 mi ENE 6.9 mph - N/A   Clear
1:55 PM 58.3 °F - 32.5 °F 38% 30.20 in 10.0 mi NE 6.9 mph - N/A   Clear
2:15 PM 58.1 °F - 32.0 °F 37% 30.19 in 10.0 mi East 9.2 mph - N/A   Clear
2:35 PM 58.6 °F - 31.5 °F 36% 30.20 in 10.0 mi ENE 10.4 mph - N/A   Clear
2:55 PM 58.8 °F - 30.6 °F 34% 30.19 in 10.0 mi NE 6.9 mph - N/A   Clear
3:15 PM 59.0 °F - 31.3 °F 35% 30.19 in 10.0 mi East 9.2 mph - N/A   Clear
3:35 PM 58.8 °F - 31.8 °F 36% 30.18 in 10.0 mi NE 8.1 mph - N/A   Clear
3:55 PM 58.6 °F - 32.0 °F 37% 30.18 in 5.0 mi NE 8.1 mph - N/A   Clear
4:15 PM 58.5 °F - 31.1 °F 35% 30.18 in 10.0 mi East 5.8 mph - N/A   Clear
4:35 PM 58.5 °F - 31.8 °F 37% 30.17 in 10.0 mi NE 9.2 mph - N/A   Clear
4:55 PM 57.7 °F - 32.0 °F 38% 30.18 in 10.0 mi East 8.1 mph - N/A   Clear
5:15 PM 57.2 °F - 31.6 °F 38% 30.18 in 10.0 mi ENE 5.8 mph - N/A   Clear
5:35 PM 55.9 °F - 32.4 °F 41% 30.18 in 10.0 mi ENE 3.5 mph - N/A   Clear
5:55 PM 54.3 °F - 33.4 °F 45% 30.18 in 10.0 mi East 3.5 mph - N/A   Clear
6:15 PM 51.4 °F - 33.8 °F 51% 30.18 in 10.0 mi Calm Calm - N/A   Clear
6:35 PM 47.8 °F - 34.0 °F 59% 30.18 in 10.0 mi Calm Calm - N/A   Clear
6:55 PM 45.1 °F - 34.9 °F 67% 30.18 in 10.0 mi Calm Calm - N/A   Clear
7:15 PM 43.3 °F - 35.6 °F 74% 30.18 in 10.0 mi Calm Calm - N/A   Clear
7:35 PM 41.9 °F - 35.4 °F 78% 30.18 in 10.0 mi Calm Calm - N/A   Clear
7:55 PM 41.4 °F 38.4 °F 35.6 °F 80% 30.18 in 10.0 mi North 4.6 mph - N/A   Clear
8:15 PM 41.5 °F 38.6 °F 35.2 °F 78% 30.18 in 10.0 mi NNE 4.6 mph - N/A   Clear
8:35 PM 40.6 °F 37.5 °F 34.9 °F 80% 30.18 in 10.0 mi NE 4.6 mph - N/A   Clear
8:55 PM 39.9 °F - 34.9 °F 82% 30.18 in 10.0 mi Calm Calm - N/A   Clear
9:15 PM 38.8 °F - 34.9 °F 86% 30.18 in 10.0 mi Calm Calm - N/A   Clear
9:35 PM 39.4 °F - 35.1 °F 84% 30.18 in 10.0 mi Calm Calm - N/A   Clear
9:55 PM 38.5 °F - 34.7 °F 86% 30.18 in 10.0 mi Calm Calm - N/A   Clear
10:15 PM 37.9 °F - 34.3 °F 87% 30.18 in 10.0 mi Calm Calm - N/A   Clear
10:35 PM 36.9 °F - 33.6 °F 88% 30.18 in 10.0 mi Calm Calm - N/A   Clear
10:55 PM 35.6 °F - 33.1 °F 91% 30.18 in 10.0 mi Calm Calm - N/A   Clear
11:15 PM 35.4 °F - 33.3 °F 92% 30.18 in 10.0 mi Calm Calm - N/A   Clear
11:35 PM 35.4 °F - 33.1 °F 91% 30.18 in 10.0 mi Calm Calm - N/A   Clear
11:55 PM 35.1 °F - 32.9 °F 92% 30.18 in 10.0 mi Calm Calm - N/A   Clear